RH
18 16 16 16 15 15 16 16 19 20 19 20 17 14 17 17 16 20 19 15 15 14 13 15 22 31 35 32 30 32 30 34 40 38 36 38 42 45 45 50 53 52 51 46 43 42 41 42 41 40 39 41 44 47 48 47 49 47 45 50 54 54 55 55 58 58 55 51 47 47 50 52 53 53 55 54 53 55 56 63 71 72 68 72 77 78
19 18 16 16 15 16 18 19 20 21 20 22 21 15 16 17 17 20 21 17 15 15 16 18 24 34 39 36 32 32 36 39 37 34 32 32 40 48 53 57 53 50 49 45 44 44 41 42 41 41 43 44 46 47 48 49 51 49 47 50 51 53 55 55 56 56 54 52 47 44 44 47 48 47 49 50 49 50 51 55 67 73 70 71 76 78
21 20 17 15 15 16 19 20 22 24 23 23 21 17 16 17 18 21 20 17 15 17 23 24 29 39 42 41 39 36 37 36 32 33 34 35 44 54 58 59 53 49 48 44 44 44 41 41 41 43 45 45 45 45 47 49 49 48 48 48 47 49 52 54 55 54 53 50 44 41 41 42 43 41 41 42 43 47 48 49 57 67 72 75 77 78
22 19 16 16 16 17 20 21 22 25 26 25 20 15 18 17 17 22 21 17 14 18 27 29 32 44 47 45 45 42 36 30 27 28 32 39 50 57 57 57 55 50 47 44 42 42 42 41 41 43 44 45 45 45 47 47 46 47 48 47 48 48 50 53 53 49 47 44 40 38 40 41 40 39 36 37 42 48 50 49 51 56 66 75 76 76
23 18 16 17 17 17 21 22 22 26 27 25 19 15 19 18 17 25 24 18 16 17 26 32 38 47 46 45 48 46 39 33 30 27 28 37 46 50 52 52 50 47 43 41 40 42 43 41 40 41 43 44 46 47 47 46 46 47 47 46 46 45 46 46 44 42 41 41 39 38 39 41 40 39 38 40 46 49 50 51 49 48 55 68 75 75
25 22 18 18 19 17 20 22 21 26 28 23 19 16 19 21 22 29 28 20 18 18 22 28 36 42 39 41 48 48 46 43 36 32 31 34 39 43 47 47 45 43 41 38 39 42 43 43 41 42 43 44 46 47 47 47 46 46 45 43 42 41 41 39 38 38 39 40 41 40 40 42 43 41 42 46 48 48 49 50 49 46 48 57 69 74
27 26 22 20 20 17 18 23 22 26 28 22 18 16 19 24 24 29 30 26 21 19 23 25 27 35 38 41 47 48 52 52 41 34 33 34 37 39 42 44 42 41 39 37 40 42 44 44 43 43 44 45 45 46 46 48 47 45 44 42 41 40 38 36 36 36 38 41 41 41 40 42 44 42 42 47 49 48 49 49 48 48 46 46 54 63
27 27 25 22 22 20 20 25 25 24 24 22 19 15 18 26 26 27 32 34 29 23 27 27 23 34 45 44 46 48 55 60 49 37 35 35 37 40 41 42 41 38 37 37 40 43 44 44 44 44 44 43 43 44 45 46 46 44 44 43 41 40 37 35 36 38 40 42 42 42 42 43 44 43 44 47 49 51 52 51 49 48 47 45 45 49
26 26 26 25 25 24 23 23 23 22 22 23 23 18 16 24 29 29 33 36 31 27 30 29 23 33 47 47 47 50 55 65 59 41 35 37 37 39 40 39 38 37 37 39 41 43 45 45 45 44 44 42 41 41 43 44 44 44 43 43 41 41 40 39 39 42 43 43 42 42 44 44 44 45 47 48 50 53 53 51 50 51 50 48 47 46
25 24 27 29 26 24 22 20 22 22 20 23 28 26 18 20 28 31 34 34 30 30 33 34 29 29 42 51 52 52 55 62 61 45 35 37 37 38 38 36 36 37 38 41 43 44 44 44 44 42 41 40 39 39 41 42 43 43 43 43 43 42 43 43 44 46 46 44 43 43 43 43 42 44 46 48 50 53 53 53 52 53 53 52 51 47
26 26 30 32 25 23 23 22 24 23 21 25 33 35 25 19 25 31 34 31 29 33 33 35 36 30 41 57 54 49 53 59 59 49 39 37 38 39 38 36 36 37 40 42 43 43 43 42 41 40 39 39 39 39 39 40 41 42 42 43 45 44 46 47 46 46 46 45 45 45 44 43 43 44 46 48 50 51 52 54 55 55 55 55 55 50
30 34 33 30 25 26 27 24 26 25 22 29 37 38 32 23 21 26 31 32 31 33 30 33 38 31 37 50 48 47 56 60 57 49 41 38 38 40 39 38 37 38 41 42 42 42 42 42 41 41 41 40 40 40 39 40 41 42 43 44 46 47 47 47 46 45 45 45 45 45 45 45 44 45 47 48 51 53 53 56 57 56 55 56 56 54
33 39 35 29 26 28 29 26 28 27 24 32 37 34 32 26 23 22 26 31 30 28 28 32 36 33 35 42 46 54 63 63 56 47 41 38 38 41 41 39 39 39 41 42 42 43 43 44 43 43 43 41 41 42 41 42 42 43 44 45 47 48 47 47 46 46 47 45 44 45 45 45 45 47 50 50 49 50 51 58 61 56 57 59 57 56
35 42 38 32 28 28 29 28 31 30 26 34 37 29 26 26 28 26 24 28 25 22 28 32 30 34 48 62 65 65 65 62 56 50 47 44 42 43 43 42 41 41 43 44 43 44 44 45 45 45 45 44 43 43 42 42 42 42 43 44 45 45 46 47 47 48 50 47 46 47 48 48 48 48 50 51 50 49 48 55 63 61 62 65 63 60
33 41 38 33 30 28 27 29 35 34 30 35 31 24 24 26 30 29 23 25 24 23 31 33 31 39 59 76 76 68 63 61 59 56 54 51 47 45 45 45 44 44 45 45 43 44 45 46 48 48 48 47 45 44 43 42 42 42 42 42 42 43 44 46 48 49 50 49 48 49 50 50 51 50 51 51 51 52 52 55 62 64 63 63 64 64
30 35 35 33 31 28 28 33 39 37 36 36 27 23 28 28 33 33 25 26 29 30 34 37 46 58 69 77 75 67 63 61 62 59 57 57 51 47 48 47 47 47 46 45 45 45 47 49 50 50 49 48 46 45 44 43 43 42 41 42 43 45 47 48 49 49 51 51 49 48 50 50 50 51 52 52 51 52 54 57 60 62 60 59 60 61
29 33 34 34 32 29 30 35 40 39 38 35 24 23 29 29 33 36 31 30 32 35 36 41 60 75 77 81 79 71 66 63 63 60 58 59 53 48 49 49 49 50 48 48 48 48 49 50 50 50 49 47 46 44 44 43 43 42 42 45 47 48 49 49 49 51 52 53 51 47 46 45 46 47 49 51 51 52 53 56 57 58 58 56 56 57
31 33 34 33 32 30 29 30 35 38 38 34 25 23 29 31 33 35 36 33 32 37 39 44 65 73 69 74 78 74 69 64 61 59 57 58 54 50 52 53 52 53 52 51 51 50 49 50 50 50 47 45 44 43 42 42 42 43 45 47 48 48 49 50 52 53 54 55 54 50 44 43 44 45 48 51 53 55 55 55 56 58 58 56 56 57
34 35 38 36 32 30 29 28 31 36 35 33 29 25 29 34 33 33 38 38 34 39 42 49 66 67 57 62 69 70 69 63 57 56 57 56 54 53 54 55 55 55 54 53 51 50 51 51 51 49 45 42 42 42 43 44 45 46 47 48 48 48 50 52 54 55 54 52 52 50 46 46 46 46 48 52 53 54 54 53 55 59 60 59 58 58
37 36 40 41 34 29 30 28 28 32 31 30 32 29 26 30 32 33 36 38 36 37 43 52 62 62 56 58 63 64 65 62 58 56 56 56 55 55 56 56 55 54 54 53 52 53 53 52 50 47 43 42 43 43 44 45 47 48 49 50 50 49 51 52 53 53 51 48 50 51 48 47 47 45 46 49 50 51 52 51 52 55 59 60 60 58
40 38 40 43 38 31 29 27 26 28 27 29 33 32 28 29 32 32 33 35 35 36 41 45 55 68 71 66 64 64 64 63 62 58 55 56 56 57 57 57 56 55 55 55 55 55 54 51 48 45 43 43 43 44 45 46 47 48 49 51 51 50 50 50 51 51 50 50 51 52 49 47 44 41 41 42 44 48 52 52 51 52 54 57 58 57
42 42 44 45 39 31 26 23 24 26 26 28 29 30 31 31 32 33 35 37 35 36 38 39 55 79 83 75 72 71 66 65 64 58 56 57 57 58 58 58 58 58 57 58 57 55 54 50 46 44 44 45 45 46 47 46 46 47 50 51 51 51 51 51 51 50 51 52 51 49 46 43 40 37 36 36 37 42 47 49 49 49 49 50 54 56
42 43 45 45 38 32 28 24 24 27 31 32 27 26 29 29 30 33 36 38 37 38 35 37 59 82 80 74 75 74 71 69 65 59 59 60 59 60 61 61 61 60 59 59 57 55 52 47 44 44 45 46 47 48 48 47 47 49 51 51 51 52 52 51 51 51 51 51 50 48 43 38 35 34 34 33 34 35 38 41 43 44 44 45 48 52
42 42 43 43 38 34 33 30 26 27 34 35 26 24 29 30 30 31 33 35 36 38 33 36 63 84 80 74 72 70 72 70 65 62 62 63 64 64 64 63 62 62 62 61 58 54 49 45 43 45 46 46 47 48 49 48 48 49 51 51 52 53 52 51 50 50 51 51 49 47 42 36 33 33 33 34 34 33 34 37 39 42 43 42 43 48
41 42 41 43 42 40 41 40 33 29 35 38 30 24 28 33 32 31 34 37 38 39 35 38 63 83 80 77 73 69 70 68 65 66 66 67 67 66 65 65 64 64 62 60 56 51 47 46 45 47 48 47 48 48 48 48 49 50 51 52 53 53 53 53 51 51 51 50 48 46 43 40 37 36 37 37 36 35 35 38 39 41 43 43 43 45
41 43 43 45 44 43 45 44 39 34 37 42 39 30 30 34 33 31 34 39 43 43 36 41 64 81 79 78 78 72 69 67 67 69 69 69 68 65 65 65 64 63 60 56 54 51 49 49 49 50 50 49 48 48 48 48 48 49 51 52 52 52 53 54 54 53 51 50 49 48 46 45 44 43 43 42 40 39 38 39 40 41 41 42 44 45
43 49 53 55 51 47 47 46 43 40 39 43 44 39 36 34 32 31 33 38 42 42 41 48 63 75 78 77 75 71 69 68 68 68 68 67 64 63 63 63 62 61 59 56 53 51 50 52 52 51 51 50 49 48 47 47 47 48 49 49 49 50 51 52 52 51 50 50 51 50 49 48 47 46 45 44 43 42 41 40 40 40 40 39 41 44
47 55 60 62 59 57 57 54 48 43 39 41 43 44 43 41 40 37 36 41 45 45 54 63 62 64 73 74 71 69 68 67 65 64 64 64 61 60 61 62 63 62 60 57 54 52 52 54 54 52 51 51 50 49 48 48 47 48 48 47 48 48 48 48 48 48 48 50 51 51 50 50 49 47 46 45 44 44 43 41 41 41 41 39 39 42
49 57 58 59 61 61 61 60 53 48 46 45 44 47 49 49 50 47 43 47 52 54 64 71 64 61 69 73 71 69 67 66 66 64 64 65 64 63 62 63 64 62 60 58 57 55 55 55 55 54 54 54 52 52 51 51 50 50 50 49 49 49 48 47 48 48 48 49 50 51 51 51 51 49 47 46 45 44 43 41 40 39 40 40 39 40
53 61 59 56 58 60 62 62 58 57 60 60 55 53 54 54 55 57 55 56 60 64 67 68 66 67 69 69 69 68 69 68 68 67 67 67 68 66 63 63 65 64 62 61 61 60 59 58 58 58 59 59 57 55 54 53 53 52 51 51 51 51 50 49 49 49 49 50 51 51 52 53 52 50 48 47 45 44 44 42 39 38 38 39 39 39
58 65 60 54 59 64 65 65 63 62 65 66 65 63 63 65 66 65 64 62 63 68 69 66 68 70 67 64 66 68 70 69 68 67 66 67 69 67 64 63 65 66 66 66 66 65 63 63 63 64 65 64 62 59 57 56 54 52 51 51 52 52 51 50 50 50 50 51 51 52 53 54 52 51 50 48 47 46 45 43 41 39 38 38 38 39
57 62 60 56 59 66 66 66 68 66 63 65 70 72 71 73 71 65 61 59 60 65 68 66 66 67 64 63 67 71 72 70 69 68 67 68 68 67 66 66 67 68 69 70 71 70 68 67 68 69 68 66 64 61 59 57 55 53 52 52 52 51 49 47 49 50 51 52 53 54 56 55 54 53 52 50 48 47 46 44 42 40 39 40 39 38
53 57 58 54 56 63 64 65 69 66 61 64 71 75 75 73 70 65 61 61 62 63 63 60 59 61 60 61 66 71 72 71 71 70 70 70 70 69 70 71 73 74 74 75 75 74 73 72 72 71 70 68 66 64 61 59 57 55 54 53 52 52 49 47 48 50 51 52 54 56 57 57 56 55 53 52 50 49 48 46 43 41 40 40 40 39
51 53 55 52 54 61 63 65 70 68 66 70 71 72 76 75 71 67 64 63 63 61 59 59 60 61 60 60 64 69 71 73 74 73 74 75 75 75 76 77 78 78 78 79 79 79 78 77 74 72 71 71 70 68 65 63 61 58 56 55 54 53 52 51 50 51 52 54 55 56 57 58 57 56 54 53 52 51 51 49 47 45 42 41 40 40
49 50 54 51 50 59 65 68 75 78 77 77 72 69 73 72 65 63 63 62 61 62 62 62 62 62 61 62 66 71 75 78 78 79 79 79 80 81 81 81 80 79 80 82 81 80 80 77 75 73 72 72 73 73 70 67 65 63 60 59 56 55 55 54 54 55 56 57 57 57 58 58 58 57 56 55 54 53 52 50 49 49 47 45 43 42
49 48 56 56 52 60 69 70 74 79 79 79 76 72 72 70 65 65 67 67 65 64 65 64 63 63 63 65 70 75 79 81 81 82 82 81 81 81 80 81 81 81 82 81 79 78 77 74 73 71 71 73 75 75 74 72 70 67 65 63 61 59 58 57 57 59 60 61 61 60 60 60 59 59 58 56 55 54 53 51 50 50 50 49 48 46
51 49 55 62 61 64 71 75 77 80 81 81 80 75 71 71 71 69 72 75 70 66 68 68 66 66 67 69 74 78 81 82 83 84 84 83 84 84 83 82 82 82 81 79 76 74 71 69 68 69 71 73 73 74 74 73 72 71 69 67 65 64 63 62 61 62 62 63 63 62 61 61 60 59 58 57 55 54 54 53 52 51 51 51 50 50
53 51 52 59 64 64 67 72 74 76 78 78 77 73 70 71 71 67 71 79 76 70 72 73 70 70 72 74 79 81 81 83 87 88 87 86 85 85 82 79 78 78 78 77 75 71 68 67 68 69 69 69 69 70 72 73 74 73 71 70 69 68 67 65 64 64 64 64 63 62 61 60 59 58 58 56 55 55 54 54 53 52 51 51 52 51
62 60 55 55 61 60 59 61 63 67 74 76 74 73 72 72 71 68 71 81 80 74 74 76 74 74 75 77 79 78 77 81 85 85 86 85 83 81 77 74 73 73 72 72 70 69 67 68 68 68 68 68 68 68 69 72 73 73 71 70 69 68 67 65 63 63 64 64 63 61 60 58 58 58 58 57 56 56 55 55 54 53 52 52 52 53
69 70 65 60 60 58 57 61 68 73 77 76 75 75 72 71 72 71 71 76 76 73 74 76 75 73 74 77 78 75 74 78 82 83 83 82 79 77 75 74 74 73 70 68 67 67 67 68 68 69 68 68 68 67 66 67 68 69 69 68 67 66 65 63 62 61 62 62 62 61 60 59 59 59 59 59 59 58 58 57 56 55 55 54 53 54
66 68 66 61 57 56 59 67 77 82 80 76 75 75 71 70 72 72 70 70 71 72 73 74 73 73 74 74 74 74 75 78 81 82 81 79 78 77 77 76 75 73 70 69 68 68 70 70 69 69 67 67 66 64 62 62 62 63 64 64 64 65 64 63 62 61 61 61 61 61 60 60 61 60 61 61 62 62 61 60 59 59 59 59 57 57
60 59 58 57 55 57 62 68 75 81 78 72 72 73 71 71 72 71 69 68 68 68 70 73 75 76 76 75 75 76 77 77 81 82 81 79 79 79 78 76 73 72 72 71 71 70 70 70 69 67 66 65 64 62 60 59 58 58 58 58 59 60 61 61 60 60 61 61 61 61 60 59 60 60 61 62 62 63 64 63 62 63 63 64 64 62
57 53 54 58 58 56 58 61 67 72 70 66 66 69 70 70 70 69 67 66 66 67 70 75 77 76 78 79 79 80 79 78 79 80 78 77 76 75 74 73 71 72 72 71 69 68 66 65 63 60 57 55 52 51 50 49 48 47 47 46 47 48 49 50 52 53 55 56 57 56 56 55 56 57 59 60 61 63 65 66 66 66 66 68 68 67
57 53 56 62 62 58 61 67 70 70 67 65 66 67 65 64 64 64 63 63 65 66 67 71 73 72 74 76 76 75 75 74 74 73 71 71 71 70 71 71 70 70 68 65 61 58 55 51 47 44 41 39 37 36 35 34 34 34 34 34 34 35 38 42 45 47 48 49 50 50 50 50 50 52 54 56 57 60 62 64 65 66 67 68 68 68
55 53 55 61 62 60 66 74 73 68 65 66 67 65 62 61 61 60 59 59 62 63 62 64 68 68 68 70 69 67 67 67 66 66 67 69 70 71 71 69 66 62 57 50 44 40 37 34 32 32 31 30 29 29 29 29 30 30 29 28 29 30 33 36 40 43 45 46 47 47 47 48 48 49 50 50 52 54 57 59 62 64 65 66 66 67
51 48 50 56 58 57 61 68 68 65 64 63 64 62 60 59 58 57 59 60 62 63 62 62 65 65 64 64 65 64 65 66 67 68 70 71 71 68 63 56 50 45 40 35 31 29 29 28 28 29 30 29 29 29 29 28 28 28 27 27 28 29 29 31 34 37 40 42 44 45 46 47 47 49 49 49 50 52 55 59 62 63 64 65 65 65
47 47 47 51 54 56 61 66 65 64 62 60 60 60 57 56 57 57 58 61 62 64 65 64 65 66 65 65 66 67 68 70 71 70 68 64 59 52 44 37 33 32 31 29 28 27 27 28 27 28 29 28 27 27 26 25 24 23 23 24 24 25 25 26 27 29 31 33 36 38 40 43 44 45 47 49 50 51 55 59 63 65 65 66 67 67
45 47 48 52 54 55 60 62 60 60 61 58 58 59 56 55 56 56 57 60 61 63 64 64 65 67 66 67 68 68 68 68 65 60 53 47 41 36 32 30 30 30 29 28 27 27 26 25 25 25 25 24 23 22 22 20 19 19 19 21 21 21 21 22 22 23 24 26 28 30 34 39 41 42 45 47 47 49 52 56 61 64 65 66 67 68
43 46 49 53 56 55 56 57 55 57 60 59 58 58 56 56 57 57 58 60 60 60 62 63 65 66 66 67 68 66 62 58 52 46 39 34 31 29 29 30 30 30 28 26 24 23 22 21 21 20 20 21 20 19 18 18 18 18 18 19 20 20 20 20 21 21 20 21 24 27 32 38 40 40 42 43 45 47 50 52 55 58 61 63 65 67
44 48 48 48 52 54 53 53 53 54 57 59 58 57 57 58 58 58 58 58 58 60 63 64 65 66 67 67 64 57 50 43 38 33 28 26 27 28 29 28 27 25 23 22 19 18 18 18 18 18 19 19 19 18 17 17 18 18 18 18 18 19 21 21 21 22 23 23 21 21 27 35 38 38 41 44 47 49 51 52 52 53 55 58 61 64
47 51 48 46 48 49 49 50 51 52 53 56 58 57 57 57 55 54 56 57 58 61 64 66 67 65 61 55 48 40 35 31 28 26 26 26 27 27 24 21 19 18 18 19 18 18 18 18 17 16 16 17 19 18 17 17 18 18 17 16 17 19 23 22 20 22 27 29 26 23 26 30 30 30 36 42 44 46 49 51 51 51 53 55 57 59